Tracking 28794 objects as of 20-Apr-2024
HD Live streaming from Space Station
objects crossing your sky now

STARLINK-4795

Track STARLINK-4795 now!
10-day predictions
STARLINK-4795 is classified as:


NORAD ID: 53856
Int'l Code: 2022-114AQ
Perigee: 545.7 km
Apogee: 548.0 km
Inclination: 53.2 °
Period: 95.4 minutes
Semi major axis: 6917 km
RCS: Unknown
Launch date: September 19, 2022
Source: United States (US)
Launch site: AIR FORCE EASTERN TEST RANGE (AFETR)
Your satellite tracking list
Your tracking list is empty




NASA's NSSDC Master Catalog

Two Line Element Set (TLE):
1 53856U 22114AQ  24110.48077698  .00004006  00000-0  26959-3 0  9998
2 53856  53.2165 138.1697 0001661 112.2409 247.8759 15.08843662 89067
Source of the keplerian elements: AFSPC